FW8891 Weather Reports


Display with metric or nautical units.
time (UTC)temp
F
wind
direction
speed
MPH
gust
MPH
rain 1hr
in
rain 24hr
in
rain mn
in
humidity
%
barometer
mb
20260503005559 90 148 2.0 6.0 0.00 0.00 0.00 19 1010.5
20260503005102 90 130 2.0 6.0 0.00 0.00 0.00 18 1010.4
20260503004603 91 129 0.0 5.0 0.00 0.00 0.00 18 1010.6
20260503004100 90 142 1.0 5.0 0.00 0.00 0.00 19 1010.6
20260503003600 91 111 1.0 5.0 0.00 0.00 0.00 19 1010.6
20260503003100 90 219 3.0 5.0 0.00 0.00 0.00 19 1010.6
20260503002559 90 118 1.0 9.0 0.00 0.00 0.00 19 1010.6
20260503002059 90 115 1.0 9.0 0.00 0.00 0.00 20 1010.6
20260503001558 90 104 5.0 9.0 0.00 0.00 0.00 18 1010.7
20260503001100 90 80 2.0 8.0 0.00 0.00 0.00 19 1010.7
20260503000559 90 134 4.0 8.0 0.00 0.00 0.00 19 1010.6
20260503000100 91 84 3.0 7.0 0.00 0.00 0.00 18 1010.7
20260502235558 91 135 2.0 4.0 0.00 0.00 0.00 17 1010.6
20260502235058 91 73 0.0 5.0 0.00 0.00 0.00 17 1010.7
20260502234558 91 67 2.0 7.0 0.00 0.00 0.00 17 1010.6
20260502234100 91 49 2.0 8.0 0.00 0.00 0.00 18 1010.6
20260502233559 91 90 4.0 8.0 0.00 0.00 0.00 18 1010.6
20260502233107 91 174 0.0 7.0 0.00 0.00 0.00 19 1010.6
20260502232559 91 113 2.0 12.0 0.00 0.00 0.00 18 1010.6
20260502232059 91 105 4.0 12.0 0.00 0.00 0.00 19 1010.6
20260502231607 92 130 3.0 8.0 0.00 0.00 0.00 18 1010.7
20260502231059 92 272 0.0 5.0 0.00 0.00 0.00 19 1010.6
20260502230558 92 63 2.0 5.0 0.00 0.00 0.00 18 1010.7
20260502230100 92 85 1.0 4.0 0.00 0.00 0.00 18 1010.7
20260502225558 91 43 2.0 7.0 0.00 0.00 0.00 18 1010.8
20260502225059 91 75 2.0 8.0 0.00 0.00 0.00 18 1010.9
20260502224559 91 76 4.0 8.0 0.00 0.00 0.00 18 1011.0
20260502224059 92 150 1.0 8.0 0.00 0.00 0.00 17 1011.0
20260502223559 92 76 4.0 8.0 0.00 0.00 0.00 17 1011.1
20260502223057 92 131 2.0 6.0 0.00 0.00 0.00 18 1011.1
20260502222559 92 67 2.0 6.0 0.00 0.00 0.00 17 1011.2
20260502222058 93 94 3.0 8.0 0.00 0.00 0.00 17 1011.3
20260502221600 93 96 2.0 10.0 0.00 0.00 0.00 18 1011.4
20260502221058 92 134 5.0 10.0 0.00 0.00 0.00 18 1011.5
20260502220559 92 77 1.0 8.0 0.00 0.00 0.00 18 1011.6
20260502220105 92 120 2.0 6.0 0.00 0.00 0.00 18 1011.7
20260502215559 93 54 2.0 8.0 0.00 0.00 0.00 17 1011.7
20260502215101 92 0 1.0 8.0 0.00 0.00 0.00 18 1011.8
20260502214557 92 64 4.0 7.0 0.00 0.00 0.00 18 1012.0
20260502214101 92 89 3.0 6.0 0.00 0.00 0.00 18 1012.1
20260502213559 91 107 2.0 6.0 0.00 0.00 0.00 18 1012.1
20260502213058 91 57 2.0 8.0 0.00 0.00 0.00 19 1012.2
20260502212559 90 3 3.0 10.0 0.00 0.00 0.00 19 1012.3
20260502212059 91 82 1.0 10.0 0.00 0.00 0.00 18 1012.4
20260502211600 91 84 5.0 10.0 0.00 0.00 0.00 19 1012.5
20260502211102 91 61 4.0 9.0 0.00 0.00 0.00 18 1012.4
20260502210558 92 108 5.0 9.0 0.00 0.00 0.00 17 1012.5
20260502210105 92 101 3.0 7.0 0.00 0.00 0.00 19 1012.6
20260502205559 91 73 2.0 6.0 0.00 0.00 0.00 18 1012.7
20260502205100 90 78 2.0 10.0 0.00 0.00 0.00 17 1012.7
20260502204601 90 269 3.0 10.0 0.00 0.00 0.00 18 1012.7
20260502204059 91 55 5.0 9.0 0.00 0.00 0.00 17 1012.9
20260502203558 90 72 4.0 16.0 0.00 0.00 0.00 16 1012.8
20260502203100 91 144 5.0 16.0 0.00 0.00 0.00 18 1013.0
20260502202558 93 42 3.0 10.0 0.00 0.00 0.00 18 1013.0
20260502202101 93 104 2.0 6.0 0.00 0.00 0.00 20 1013.1
20260502201603 92 217 3.0 10.0 0.00 0.00 0.00 19 1013.2
20260502201059 91 194 5.0 10.0 0.00 0.00 0.00 20 1013.2
20260502200559 90 122 4.0 10.0 0.00 0.00 0.00 20 1013.3
20260502200106 90 96 5.0 10.0 0.00 0.00 0.00 21 1013.4
20260502195558 90 47 2.0 10.0 0.00 0.00 0.00 23 1013.4
20260502195103 90 86 2.0 11.0 0.00 0.00 0.00 22 1013.5
20260502194618 90 77 4.0 11.0 0.00 0.00 0.00 22 1013.6
20260502194059 91 113 3.0 9.0 0.00 0.00 0.00 23 1013.6
20260502193559 90 156 4.0 9.0 0.00 0.00 0.00 23 1013.6
20260502193102 90 134 6.0 10.0 0.00 0.00 0.00 25 1013.7
20260502192600 89 139 4.0 10.0 0.00 0.00 0.00 25 1013.8
20260502192058 89 178 4.0 11.0 0.00 0.00 0.00 24 1013.8
20260502191600 89 65 4.0 11.0 0.00 0.00 0.00 24 1013.9
20260502191101 89 139 6.0 13.0 0.00 0.00 0.00 24 1013.9
20260502190603 88 113 7.0 13.0 0.00 0.00 0.00 24 1014.1
20260502190106 89 119 6.0 12.0 0.00 0.00 0.00 25 1014.2
20260502185559 89 177 6.0 10.0 0.00 0.00 0.00 25 1014.1
20260502185059 89 98 4.0 8.0 0.00 0.00 0.00 24 1014.2
20260502184601 89 111 3.0 7.0 0.00 0.00 0.00 25 1014.3
20260502184059 88 14 3.0 13.0 0.00 0.00 0.00 26 1014.4
20260502183559 87 115 5.0 13.0 0.00 0.00 0.00 26 1014.5
20260502183108 87 109 7.0 13.0 0.00 0.00 0.00 25 1014.6
20260502182559 87 234 5.0 12.0 0.00 0.00 0.00 26 1014.5
20260502182103 87 133 6.0 12.0 0.00 0.00 0.00 27 1014.5
20260502181558 87 126 6.0 12.0 0.00 0.00 0.00 27 1014.7
20260502181059 87 53 3.0 11.0 0.00 0.00 0.00 27 1014.8
20260502180603 87 155 5.0 11.0 0.00 0.00 0.00 28 1014.9
20260502180123 86 200 4.0 11.0 0.00 0.00 0.00 27 1014.7
20260502164102 84 77 6.0 11.0 0.00 0.00 0.00 23 1015.3
20260502163559 84 115 6.0 11.0 0.00 0.00 0.00 23 1015.3
20260502163059 83 109 4.0 12.0 0.00 0.00 0.00 23 1015.3
20260502162559 83 150 5.0 12.0 0.00 0.00 0.00 23 1015.2
20260502162100 83 91 3.0 9.0 0.00 0.00 0.00 23 1015.3
20260502161601 83 119 4.0 9.0 0.00 0.00 0.00 23 1015.2
20260502161059 83 95 4.0 7.0 0.00 0.00 0.00 23 1015.2
20260502160559 83 98 4.0 8.0 0.00 0.00 0.00 23 1015.2
20260502152104 81 56 5.0 12.0 0.00 0.00 0.00 23 1014.7
20260502151612 80 42 5.0 12.0 0.00 0.00 0.00 23 1014.7
20260502151102 80 68 5.0 11.0 0.00 0.00 0.00 23 1014.6
20260502150559 80 49 4.0 11.0 0.00 0.00 0.00 24 1014.6
20260502150103 79 56 5.0 11.0 0.00 0.00 0.00 24 1014.6
20260502130602 65 0 0.0 0.0 0.00 0.00 0.00 32 1013.4
20260502130113 65 0 0.0 0.0 0.00 0.00 0.00 33 1013.2
20260502123601 65 0 0.0 0.0 0.00 0.00 0.00 32 1012.8
20260502123106 65 0 0.0 0.0 0.00 0.00 0.00 34 1012.9
20260502122602 65 0 0.0 0.0 0.00 0.00 0.00 34 1012.9
20260502122059 65 0 0.0 0.0 0.00 0.00 0.00 33 1012.7
20260502121609 65 0 0.0 0.0 0.00 0.00 0.00 34 1012.7
20260502121101 65 0 0.0 0.0 0.00 0.00 0.00 33 1012.5
20260502120558 66 0 0.0 0.0 0.00 0.00 0.00 32 1012.5
20260502120104 66 0 0.0 0.0 0.00 0.00 0.00 33 1012.5
20260502115603 65 0 0.0 0.0 0.00 0.00 0.00 33 1012.4
20260502115059 65 0 0.0 0.0 0.00 0.00 0.00 34 1012.5
20260502114602 65 0 0.0 0.0 0.00 0.00 0.00 34 1012.4
20260502114100 65 0 0.0 0.0 0.00 0.00 0.00 35 1012.4
20260502113603 65 0 0.0 0.0 0.00 0.00 0.00 34 1012.3
20260502113100 66 0 0.0 0.0 0.00 0.00 0.00 34 1012.4
20260502112601 66 0 0.0 1.0 0.00 0.00 0.00 33 1012.4
20260502112100 66 0 0.0 1.0 0.00 0.00 0.00 33 1012.3
20260502111602 67 0 0.0 1.0 0.00 0.00 0.00 33 1012.4
20260502111059 67 0 0.0 1.0 0.00 0.00 0.00 32 1012.4
20260502110601 67 0 0.0 0.0 0.00 0.00 0.00 32 1012.4
20260502105559 67 0 0.0 1.0 0.00 0.00 0.00 32 1012.4
20260502105058 68 0 0.0 1.0 0.00 0.00 0.00 32 1012.4
20260502104558 68 0 0.0 0.0 0.00 0.00 0.00 32 1012.4
20260502104059 68 0 0.0 1.0 0.00 0.00 0.00 30 1012.3
20260502103600 69 0 0.0 1.0 0.00 0.00 0.00 29 1012.3
20260502103106 70 0 0.0 1.0 0.00 0.00 0.00 29 1012.3
20260502102558 70 0 0.0 2.0 0.00 0.00 0.00 28 1012.2
20260502102058 71 0 0.0 2.0 0.00 0.00 0.00 28 1012.2
20260502101621 72 123 0.0 2.0 0.00 0.00 0.00 27 1012.2
20260502101059 73 127 0.0 2.0 0.00 0.00 0.00 27 1012.1
20260502100600 74 91 0.0 1.0 0.00 0.00 0.00 27 1012.1
20260502100116 74 0 0.0 3.0 0.00 0.00 0.00 26 1012.1
20260502091058 76 20 2.0 5.0 0.00 0.00 0.00 25 1011.9
20260502090559 76 76 2.0 8.0 0.00 0.00 0.00 25 1011.8
20260502080108 77 50 3.0 6.0 0.00 0.00 0.00 23 1011.8
20260502071105 76 49 3.0 7.0 0.00 0.00 0.00 23 1011.6
20260502070558 76 8 4.0 7.0 0.00 0.00 0.00 23 1011.5
20260502065558 76 307 2.0 7.0 0.00 0.00 0.00 24 1011.5
20260502065058 75 338 3.0 7.0 0.00 0.00 0.00 23 1011.3
20260502064602 75 1 4.0 7.0 0.00 0.00 0.00 23 1011.4
20260502064101 75 342 4.0 7.0 0.00 0.00 0.00 23 1011.3
20260502063559 75 342 3.0 6.0 0.00 0.00 0.00 23 1011.3
20260502063106 74 340 4.0 6.0 0.00 0.00 0.00 22 1011.2
20260502062602 74 314 3.0 5.0 0.00 0.00 0.00 22 1011.2
20260502062101 75 322 2.0 6.0 0.00 0.00 0.00 21 1011.2
20260502061601 75 315 3.0 6.0 0.00 0.00 0.00 21 1011.0
20260502061059 74 315 2.0 6.0 0.00 0.00 0.00 22 1010.9
20260502060558 74 333 1.0 3.0 0.00 0.00 0.00 23 1010.9
20260502060113 75 342 1.0 3.0 0.00 0.00 0.00 22 1010.9
20260502055558 75 292 1.0 3.0 0.00 0.00 0.00 22 1010.7
20260502055058 75 0 0.0 0.0 0.00 0.00 0.00 23 1010.7
20260502054604 76 0 0.0 2.0 0.00 0.00 0.00 22 1010.7
20260502054058 76 0 0.0 2.0 0.00 0.00 0.00 23 1010.6
20260502053601 77 0 0.0 2.0 0.00 0.00 0.00 22 1010.6
20260502053107 78 264 0.0 2.0 0.00 0.00 0.00 22 1010.5
20260502052559 78 249 0.0 2.0 0.00 0.00 0.00 22 1010.5
20260502052104 78 260 1.0 3.0 0.00 0.00 0.00 22 1010.6
20260502051603 79 243 0.0 3.0 0.00 0.00 0.00 21 1010.4
20260502051058 79 239 1.0 7.0 0.00 0.00 0.00 22 1010.5
20260502050601 79 285 3.0 7.0 0.00 0.00 0.00 22 1010.6
20260502045559 78 247 1.0 4.0 0.00 0.00 0.00 24 1010.4
20260502045059 78 203 2.0 4.0 0.00 0.00 0.00 25 1010.2
20260502044559 78 131 1.0 3.0 0.00 0.00 0.00 25 1010.2
20260502044058 79 147 2.0 3.0 0.00 0.00 0.00 25 1010.2
20260502043559 79 173 2.0 3.0 0.00 0.00 0.00 24 1010.2
20260502043127 79 146 1.0 4.0 0.00 0.00 0.00 25 1010.1
20260502042558 80 139 1.0 4.0 0.00 0.00 0.00 25 1010.2
20260502042101 80 150 2.0 5.0 0.00 0.00 0.00 24 1010.1
20260502041559 80 160 2.0 5.0 0.00 0.00 0.00 24 1010.0
20260502041058 81 131 2.0 5.0 0.00 0.00 0.00 24 1010.0
20260502040605 81 165 3.0 4.0 0.00 0.00 0.00 24 1009.9
20260502040100 81 149 2.0 5.0 0.00 0.00 0.00 24 1009.9
20260502035600 81 127 3.0 5.0 0.00 0.00 0.00 24 1009.8
20260502035058 81 112 2.0 5.0 0.00 0.00 0.00 24 1009.8
20260502034612 81 180 2.0 5.0 0.00 0.00 0.00 24 1009.7
20260502034059 81 117 2.0 5.0 0.00 0.00 0.00 24 1009.7
20260502033559 82 169 2.0 4.0 0.00 0.00 0.00 23 1009.6
20260502033105 82 130 2.0 6.0 0.00 0.00 0.00 23 1009.6
20260502032558 82 115 2.0 6.0 0.00 0.00 0.00 23 1009.6
20260502032101 83 143 2.0 4.0 0.00 0.00 0.00 22 1009.5
20260502031559 83 157 2.0 4.0 0.00 0.00 0.00 22 1009.4
20260502031058 83 162 2.0 5.0 0.00 0.00 0.00 22 1009.4
20260502030558 83 129 3.0 6.0 0.00 0.00 0.00 22 1009.3
20260502030101 83 190 3.0 6.0 0.00 0.00 0.00 22 1009.3
20260502025601 83 119 3.0 5.0 0.00 0.00 0.00 22 1009.2
20260502025058 83 148 2.0 6.0 0.00 0.00 0.00 22 1009.2
20260502024604 84 134 3.0 6.0 0.00 0.00 0.00 22 1009.1
20260502024102 84 184 2.0 7.0 0.00 0.00 0.00 22 1009.0
20260502023602 84 114 3.0 7.0 0.00 0.00 0.00 22 1009.0
20260502023111 84 177 3.0 6.0 0.00 0.00 0.00 21 1009.0
20260502022603 84 150 3.0 5.0 0.00 0.00 0.00 21 1008.8
20260502022059 84 112 3.0 5.0 0.00 0.00 0.00 21 1008.7
20260502021608 85 118 2.0 5.0 0.00 0.00 0.00 21 1008.7
20260502021059 85 124 2.0 6.0 0.00 0.00 0.00 21 1008.7
20260502020559 86 124 2.0 6.0 0.00 0.00 0.00 21 1008.7
20260502015600 86 133 3.0 7.0 0.00 0.00 0.00 20 1008.5
20260502015100 87 109 4.0 8.0 0.00 0.00 0.00 20 1008.6
20260502014604 87 146 5.0 8.0 0.00 0.00 0.00 20 1008.5
20260502014100 87 146 3.0 6.0 0.00 0.00 0.00 19 1008.5
20260502013559 88 195 3.0 5.0 0.00 0.00 0.00 19 1008.4
20260502013104 88 147 3.0 6.0 0.00 0.00 0.00 19 1008.4
20260502012559 88 107 4.0 7.0 0.00 0.00 0.00 19 1008.3
20260502012059 88 152 4.0 7.0 0.00 0.00 0.00 19 1008.3
20260502011610 88 150 3.0 7.0 0.00 0.00 0.00 19 1008.3
20260502011105 88 129 3.0 7.0 0.00 0.00 0.00 19 1008.3
20260502010602 88 182 2.0 8.0 0.00 0.00 0.00 19 1008.4
20260502010059 88 146 4.0 8.0 0.00 0.00 0.00 19 1008.4